Time,TemperatureF,DewpointF,PressureIn,WindDirection,WindDirectionDegrees,WindSpeedMPH,WindSpeedGustMPH,Humidity,HourlyPrecipIn,Conditions,Clouds,dailyrainin,SoftwareType,DateUTC
2013-03-16 00:00:00,47.0,42.1,29.82,ENE,68,0.0,0.0,83,0.00,,,0.00,WUHU216HW,2013-03-16 07:00:00,
2013-03-16 00:05:00,47.0,42.1,29.82,NE,45,0.0,0.0,83,0.00,,,0.00,WUHU216HW,2013-03-16 07:05:00,
2013-03-16 00:10:00,47.0,42.1,29.82,NE,45,0.0,0.0,83,0.00,,,0.00,WUHU216HW,2013-03-16 07:10:00,
2013-03-16 00:30:00,47.5,42.9,29.83,SSW,203,0.0,0.0,84,0.00,,,0.00,WUHU216HW,2013-03-16 07:30:00,
2013-03-16 00:31:00,47.5,42.9,29.82,SSW,203,0.0,0.0,84,0.00,,,0.00,WUHU216HW,2013-03-16 07:31:00,
2013-03-16 00:35:00,47.5,42.9,29.82,SSW,203,0.0,0.0,84,0.00,,,0.00,WUHU216HW,2013-03-16 07:35:00,
2013-03-16 00:40:00,47.5,42.9,29.82,SSW,203,0.0,0.0,84,0.00,,,0.00,WUHU216HW,2013-03-16 07:40:00,
2013-03-16 01:00:00,47.5,43.2,29.82,South,180,0.0,0.0,85,0.00,,,0.00,WUHU216HW,2013-03-16 08:00:00,
2013-03-16 01:05:00,47.5,43.2,29.82,South,180,0.0,0.0,85,0.00,,,0.00,WUHU216HW,2013-03-16 08:05:00,
2013-03-16 01:10:00,47.5,43.2,29.82,South,180,0.0,0.0,85,0.00,,,0.00,WUHU216HW,2013-03-16 08:10:00,
2013-03-16 01:30:00,48.1,43.7,29.83,WSW,248,0.0,0.0,85,0.00,,,0.00,WUHU216HW,2013-03-16 08:30:00,
2013-03-16 01:35:00,48.1,43.7,29.83,WSW,248,0.0,0.0,85,0.00,,,0.00,WUHU216HW,2013-03-16 08:35:00,
2013-03-16 01:40:00,48.1,43.7,29.83,WSW,248,0.0,0.0,85,0.00,,,0.00,WUHU216HW,2013-03-16 08:40:00,
2013-03-16 02:00:00,48.1,43.7,29.82,WSW,248,0.0,0.0,85,0.00,,,0.00,WUHU216HW,2013-03-16 09:00:00,
2013-03-16 02:05:00,48.1,43.5,29.82,WSW,248,0.0,0.0,84,0.00,,,0.00,WUHU216HW,2013-03-16 09:05:00,
2013-03-16 02:10:00,48.1,43.5,29.82,WSW,248,0.0,0.0,84,0.00,,,0.00,WUHU216HW,2013-03-16 09:10:00,
2013-03-16 02:30:00,48.2,43.9,29.83,WSW,248,0.2,0.2,85,0.00,,,0.00,WUHU216HW,2013-03-16 09:30:00,
2013-03-16 02:35:00,48.2,43.9,29.83,WSW,248,0.2,0.2,85,0.00,,,0.00,WUHU216HW,2013-03-16 09:35:00,
2013-03-16 02:40:00,48.2,43.9,29.83,WSW,248,0.2,0.2,85,0.00,,,0.00,WUHU216HW,2013-03-16 09:40:00,
2013-03-16 03:00:00,48.6,44.3,29.83,SW,225,1.6,1.6,85,0.00,,,0.00,WUHU216HW,2013-03-16 10:00:00,
2013-03-16 03:05:00,48.6,44.3,29.83,SW,225,1.6,1.6,85,0.00,,,0.00,WUHU216HW,2013-03-16 10:05:00,
2013-03-16 03:10:00,48.6,44.3,29.83,SW,225,1.6,1.6,85,0.00,,,0.00,WUHU216HW,2013-03-16 10:10:00,
2013-03-16 03:30:00,48.8,44.1,29.82,WSW,248,0.4,0.4,84,0.00,,,0.00,WUHU216HW,2013-03-16 10:30:00,
2013-03-16 03:35:00,48.8,44.1,29.82,WSW,248,1.1,1.1,84,0.00,,,0.00,WUHU216HW,2013-03-16 10:35:00,
2013-03-16 03:40:00,48.8,44.1,29.82,WSW,248,1.1,1.1,84,0.00,,,0.00,WUHU216HW,2013-03-16 10:40:00,
2013-03-16 04:00:00,48.6,44.3,29.82,WNW,293,0.0,0.0,85,0.00,,,0.00,WUHU216HW,2013-03-16 11:00:00,
2013-03-16 04:05:00,48.6,44.3,29.82,WSW,248,0.0,0.0,85,0.00,,,0.00,WUHU216HW,2013-03-16 11:05:00,
2013-03-16 04:10:00,48.6,44.3,29.82,WSW,248,0.0,0.0,85,0.00,,,0.00,WUHU216HW,2013-03-16 11:10:00,
2013-03-16 04:30:00,48.6,44.3,29.82,WSW,248,0.4,0.4,85,0.00,,,0.00,WUHU216HW,2013-03-16 11:30:00,
2013-03-16 04:35:00,48.6,44.3,29.82,WSW,248,0.7,0.7,85,0.00,,,0.00,WUHU216HW,2013-03-16 11:35:00,
2013-03-16 04:40:00,48.6,44.3,29.82,WSW,248,0.7,0.7,85,0.00,,,0.00,WUHU216HW,2013-03-16 11:40:00,
2013-03-16 05:00:00,48.6,44.3,29.80,SW,225,0.2,0.2,85,0.00,,,0.00,WUHU216HW,2013-03-16 12:00:00,
2013-03-16 05:05:00,48.6,44.3,29.80,SW,225,0.7,0.7,85,0.00,,,0.00,WUHU216HW,2013-03-16 12:05:00,
2013-03-16 05:10:00,48.6,44.3,29.80,SW,225,0.7,0.7,85,0.00,,,0.00,WUHU216HW,2013-03-16 12:10:00,
2013-03-16 05:30:00,48.2,43.9,29.80,SW,225,0.0,0.0,85,0.00,,,0.00,WUHU216HW,2013-03-16 12:30:00,
2013-03-16 05:35:00,48.2,43.9,29.80,SW,225,0.0,0.0,85,0.00,,,0.00,WUHU216HW,2013-03-16 12:35:00,
2013-03-16 05:40:00,48.2,43.9,29.80,SW,225,0.0,0.0,85,0.00,,,0.00,WUHU216HW,2013-03-16 12:40:00,
2013-03-16 06:00:00,47.3,43.0,29.79,WSW,248,0.0,0.0,85,0.00,,,0.00,WUHU216HW,2013-03-16 13:00:00,
2013-03-16 06:05:00,47.3,43.0,29.79,WSW,248,0.0,0.0,85,0.00,,,0.00,WUHU216HW,2013-03-16 13:05:00,
2013-03-16 06:10:00,47.3,43.0,29.79,WSW,248,0.0,0.0,85,0.00,,,0.00,WUHU216HW,2013-03-16 13:10:00,
2013-03-16 06:30:00,46.4,42.2,29.78,SW,225,0.0,0.0,85,0.00,,,0.00,WUHU216HW,2013-03-16 13:30:00,
2013-03-16 06:35:00,46.6,42.4,29.78,SW,225,0.2,0.2,85,0.00,,,0.00,WUHU216HW,2013-03-16 13:35:00,
2013-03-16 06:40:00,46.6,42.4,29.78,SW,225,0.2,0.2,85,0.00,,,0.00,WUHU216HW,2013-03-16 13:40:00,
2013-03-16 07:00:00,46.4,42.9,29.77,West,270,0.7,0.7,87,0.00,,,0.00,WUHU216HW,2013-03-16 14:00:00,
2013-03-16 07:05:00,46.4,42.9,29.77,West,270,0.4,0.7,87,0.00,,,0.00,WUHU216HW,2013-03-16 14:05:00,
2013-03-16 07:10:00,46.4,42.9,29.77,West,270,0.4,0.4,87,0.00,,,0.00,WUHU216HW,2013-03-16 14:10:00,
2013-03-16 07:30:00,46.8,43.2,29.77,WSW,248,1.1,1.1,87,0.00,,,0.00,WUHU216HW,2013-03-16 14:30:00,
2013-03-16 07:35:00,46.8,43.2,29.77,WSW,248,0.0,1.1,87,0.00,,,0.00,WUHU216HW,2013-03-16 14:35:00,
2013-03-16 07:40:00,46.8,43.2,29.77,WSW,248,0.0,0.4,87,0.00,,,0.00,WUHU216HW,2013-03-16 14:40:00,
2013-03-16 08:00:00,47.3,43.7,29.77,WSW,248,0.0,0.0,87,0.00,,,0.00,WUHU216HW,2013-03-16 15:00:00,
2013-03-16 08:05:00,47.5,43.8,29.77,WSW,248,0.9,0.9,87,0.00,,,0.00,WUHU216HW,2013-03-16 15:05:00,
2013-03-16 08:10:00,47.5,43.8,29.77,WSW,248,0.9,0.9,87,0.00,,,0.00,WUHU216HW,2013-03-16 15:10:00,
2013-03-16 08:30:00,47.9,44.2,29.79,WSW,248,2.2,2.2,87,0.00,,,0.00,WUHU216HW,2013-03-16 15:30:00,
2013-03-16 08:35:00,47.9,44.2,29.79,WSW,248,2.2,2.2,87,0.00,,,0.00,WUHU216HW,2013-03-16 15:35:00,
2013-03-16 08:40:00,47.9,44.2,29.79,WSW,248,2.2,2.2,87,0.00,,,0.00,WUHU216HW,2013-03-16 15:40:00,
2013-03-16 09:00:00,48.4,44.4,29.80,SE,135,0.0,0.0,86,0.00,,,0.00,WUHU216HW,2013-03-16 16:00:00,
2013-03-16 09:05:00,48.6,44.9,29.80,WSW,248,0.2,0.2,87,0.00,,,0.00,WUHU216HW,2013-03-16 16:05:00,
2013-03-16 09:10:00,48.6,44.9,29.80,WSW,248,0.2,0.2,87,0.00,,,0.00,WUHU216HW,2013-03-16 16:10:00,
2013-03-16 09:30:00,49.3,44.9,29.80,South,180,0.2,0.2,85,0.00,,,0.00,WUHU216HW,2013-03-16 16:30:00,
2013-03-16 09:35:00,49.3,44.9,29.80,SSE,158,0.0,0.2,85,0.00,,,0.00,WUHU216HW,2013-03-16 16:35:00,
2013-03-16 09:40:00,49.3,44.9,29.80,SSE,158,0.0,0.0,85,0.00,,,0.00,WUHU216HW,2013-03-16 16:40:00,
2013-03-16 10:00:00,50.2,45.6,29.79,SSE,158,1.6,1.6,84,0.00,,,0.00,WUHU216HW,2013-03-16 17:00:00,
2013-03-16 10:05:00,50.2,45.6,29.79,South,180,1.1,1.6,84,0.00,,,0.00,WUHU216HW,2013-03-16 17:05:00,
2013-03-16 10:10:00,50.2,45.6,29.79,South,180,1.1,1.6,84,0.00,,,0.00,WUHU216HW,2013-03-16 17:10:00,
2013-03-16 10:30:00,50.6,45.3,29.79,SSW,203,1.6,1.6,82,0.00,,,0.00,WUHU216HW,2013-03-16 17:30:00,
2013-03-16 10:35:00,50.8,45.5,29.79,SSE,158,2.7,2.7,82,0.00,,,0.00,WUHU216HW,2013-03-16 17:35:00,
2013-03-16 10:40:00,50.8,45.5,29.79,SSE,158,2.7,2.7,82,0.00,,,0.00,WUHU216HW,2013-03-16 17:40:00,
2013-03-16 11:00:00,51.3,46.0,29.78,SSE,158,2.5,2.5,82,0.00,,,0.00,WUHU216HW,2013-03-16 18:00:00,
2013-03-16 11:05:00,51.3,46.0,29.78,WSW,248,1.3,2.5,82,0.00,,,0.00,WUHU216HW,2013-03-16 18:05:00,
2013-03-16 11:10:00,51.3,46.0,29.78,WSW,248,1.3,1.3,82,0.00,,,0.00,WUHU216HW,2013-03-16 18:10:00,
2013-03-16 11:30:00,50.9,44.3,29.78,West,270,1.8,1.8,78,0.00,,,0.00,WUHU216HW,2013-03-16 18:30:00,
2013-03-16 11:35:00,50.9,44.3,29.78,West,270,1.8,1.8,78,0.00,,,0.00,WUHU216HW,2013-03-16 18:35:00,
2013-03-16 11:40:00,50.9,44.3,29.78,West,270,1.8,1.8,78,0.00,,,0.00,WUHU216HW,2013-03-16 18:40:00,
2013-03-16 12:00:00,51.5,44.8,29.77,WSW,248,2.0,2.0,78,0.00,,,0.00,WUHU216HW,2013-03-16 19:00:00,
2013-03-16 12:05:00,51.5,44.8,29.77,NNW,338,3.4,3.4,78,0.00,,,0.00,WUHU216HW,2013-03-16 19:05:00,
2013-03-16 12:10:00,51.5,44.8,29.77,NNW,338,3.4,3.4,78,0.00,,,0.00,WUHU216HW,2013-03-16 19:10:00,
2013-03-16 12:30:00,50.8,44.5,29.77,SW,225,2.2,2.2,79,0.00,,,0.00,WUHU216HW,2013-03-16 19:30:00,
2013-03-16 12:35:00,50.8,44.5,29.77,SW,225,2.2,2.2,79,0.00,,,0.00,WUHU216HW,2013-03-16 19:35:00,
2013-03-16 12:40:00,50.8,44.5,29.77,SW,225,2.2,2.2,79,0.00,,,0.00,WUHU216HW,2013-03-16 19:40:00,
2013-03-16 13:00:00,50.4,45.1,29.76,SSE,158,1.8,1.8,82,0.01,,,0.00,WUHU216HW,2013-03-16 20:00:00,
2013-03-16 13:05:00,50.4,45.1,29.76,South,180,1.3,1.8,82,0.01,,,0.01,WUHU216HW,2013-03-16 20:05:00,
2013-03-16 13:10:00,50.4,45.1,29.76,South,180,1.3,1.6,82,0.01,,,0.01,WUHU216HW,2013-03-16 20:10:00,
2013-03-16 13:30:00,51.3,46.3,29.75,SW,225,0.7,0.7,83,0.02,,,0.01,WUHU216HW,2013-03-16 20:30:00,
2013-03-16 13:35:00,51.5,46.4,29.75,SW,225,0.4,0.7,83,0.02,,,0.02,WUHU216HW,2013-03-16 20:35:00,
2013-03-16 13:40:00,51.5,46.4,29.75,SW,225,0.4,0.7,83,0.02,,,0.02,WUHU216HW,2013-03-16 20:40:00,
2013-03-16 14:00:00,51.5,46.4,29.74,West,270,0.2,0.2,83,0.03,,,0.02,WUHU216HW,2013-03-16 21:00:00,
2013-03-16 14:05:00,51.5,46.4,29.74,West,270,0.2,0.2,83,0.02,,,0.04,WUHU216HW,2013-03-16 21:05:00,
2013-03-16 14:10:00,51.5,46.4,29.74,West,270,0.2,0.2,83,0.02,,,0.04,WUHU216HW,2013-03-16 21:10:00,
2013-03-16 14:30:00,51.5,46.4,29.73,SSE,158,3.1,3.1,83,0.03,,,0.04,WUHU216HW,2013-03-16 21:30:00,
2013-03-16 14:35:00,51.5,46.4,29.73,SSE,158,3.1,3.1,83,0.03,,,0.05,WUHU216HW,2013-03-16 21:35:00,
2013-03-16 14:40:00,51.5,46.4,29.73,SSE,158,3.1,3.1,83,0.03,,,0.05,WUHU216HW,2013-03-16 21:40:00,
2013-03-16 15:00:00,51.1,46.1,29.72,WSW,248,2.2,2.2,83,0.02,,,0.05,WUHU216HW,2013-03-16 22:00:00,
2013-03-16 15:05:00,51.1,46.1,29.72,WNW,293,0.4,2.2,83,0.01,,,0.06,WUHU216HW,2013-03-16 22:05:00,
2013-03-16 15:10:00,51.1,46.1,29.72,WNW,293,0.4,1.1,83,0.01,,,0.06,WUHU216HW,2013-03-16 22:10:00,
2013-03-16 15:30:00,51.5,46.2,29.71,SW,225,2.7,2.7,82,0.01,,,0.06,WUHU216HW,2013-03-16 22:30:00,
2013-03-16 15:35:00,51.5,46.2,29.71,West,270,1.8,2.7,82,0.01,,,0.06,WUHU216HW,2013-03-16 22:35:00,
2013-03-16 15:40:00,51.5,46.2,29.71,West,270,1.8,2.7,82,0.01,,,0.06,WUHU216HW,2013-03-16 22:40:00,
2013-03-16 16:00:00,51.5,45.8,29.69,SSE,158,3.8,3.8,81,0.00,,,0.06,WUHU216HW,2013-03-16 23:00:00,
2013-03-16 16:05:00,51.5,45.8,29.69,South,180,2.5,3.8,81,0.00,,,0.06,WUHU216HW,2013-03-16 23:05:00,
2013-03-16 16:10:00,51.5,45.8,29.69,South,180,2.5,2.5,81,0.00,,,0.06,WUHU216HW,2013-03-16 23:10:00,
2013-03-16 16:30:00,50.8,44.8,29.68,NE,45,1.1,1.1,80,0.00,,,0.06,WUHU216HW,2013-03-16 23:30:00,
2013-03-16 16:35:00,50.8,44.8,29.68,SE,135,2.0,2.0,80,0.00,,,0.06,WUHU216HW,2013-03-16 23:35:00,
2013-03-16 16:40:00,50.8,44.8,29.68,SE,135,2.0,2.0,80,0.00,,,0.06,WUHU216HW,2013-03-16 23:40:00,
2013-03-16 17:00:00,50.2,44.9,29.67,SSW,203,3.4,3.4,82,0.01,,,0.06,WUHU216HW,2013-03-17 00:00:00,
2013-03-16 17:05:00,50.4,45.1,29.67,SSW,203,3.4,3.4,82,0.01,,,0.07,WUHU216HW,2013-03-17 00:05:00,
2013-03-16 17:10:00,50.4,45.1,29.67,SSW,203,3.4,3.4,82,0.01,,,0.07,WUHU216HW,2013-03-17 00:10:00,
2013-03-16 17:30:00,49.9,45.5,29.68,NW,315,1.6,1.6,85,0.03,,,0.07,WUHU216HW,2013-03-17 00:30:00,
2013-03-16 17:35:00,49.9,45.5,29.68,NW,315,1.6,1.6,85,0.03,,,0.09,WUHU216HW,2013-03-17 00:35:00,
2013-03-16 17:40:00,49.9,45.5,29.68,NW,315,1.6,1.6,85,0.03,,,0.09,WUHU216HW,2013-03-17 00:40:00,
2013-03-16 18:00:00,49.0,43.7,29.70,SE,135,1.6,1.6,82,0.03,,,0.09,WUHU216HW,2013-03-17 01:00:00,
2013-03-16 18:05:00,49.0,43.7,29.70,SSE,158,1.8,1.8,82,0.03,,,0.10,WUHU216HW,2013-03-17 01:05:00,
2013-03-16 18:10:00,49.0,43.7,29.70,SSE,158,1.8,1.8,82,0.03,,,0.10,WUHU216HW,2013-03-17 01:10:00,
2013-03-16 18:30:00,47.3,41.5,29.71,SW,225,3.4,3.4,80,0.01,,,0.10,WUHU216HW,2013-03-17 01:30:00,
2013-03-16 18:35:00,47.3,41.5,29.71,WNW,293,2.2,4.7,80,0.01,,,0.10,WUHU216HW,2013-03-17 01:35:00,
2013-03-16 18:40:00,47.3,41.5,29.71,WNW,293,2.2,4.7,80,0.01,,,0.10,WUHU216HW,2013-03-17 01:40:00,
2013-03-16 19:00:00,45.4,38.9,29.71,North,0,0.0,0.0,78,0.00,,,0.10,WUHU216HW,2013-03-17 02:00:00,
2013-03-16 19:05:00,45.4,38.9,29.71,ESE,113,0.7,0.7,78,0.00,,,0.10,WUHU216HW,2013-03-17 02:05:00,
2013-03-16 19:10:00,45.4,38.9,29.71,ESE,113,0.7,0.7,78,0.00,,,0.10,WUHU216HW,2013-03-17 02:10:00,
2013-03-16 19:30:00,43.7,37.6,29.72,SW,225,0.2,0.2,79,0.00,,,0.10,WUHU216HW,2013-03-17 02:30:00,
2013-03-16 19:35:00,43.7,37.6,29.72,SW,225,0.4,0.4,79,0.00,,,0.10,WUHU216HW,2013-03-17 02:35:00,
2013-03-16 19:40:00,43.7,37.6,29.72,SW,225,0.4,0.4,79,0.00,,,0.10,WUHU216HW,2013-03-17 02:40:00,
2013-03-16 20:00:00,43.0,36.9,29.73,WSW,248,0.0,0.0,79,0.00,,,0.10,WUHU216HW,2013-03-17 03:00:00,
2013-03-16 20:05:00,43.0,36.9,29.73,WSW,248,0.0,0.0,79,0.00,,,0.10,WUHU216HW,2013-03-17 03:05:00,
2013-03-16 20:10:00,43.0,36.9,29.73,WSW,248,0.0,0.0,79,0.00,,,0.10,WUHU216HW,2013-03-17 03:10:00,
2013-03-16 20:30:00,42.8,37.4,29.75,WSW,248,1.1,1.1,81,0.00,,,0.10,WUHU216HW,2013-03-17 03:30:00,
2013-03-16 20:35:00,42.8,37.4,29.75,WSW,248,1.1,1.1,81,0.00,,,0.10,WUHU216HW,2013-03-17 03:35:00,
2013-03-16 20:40:00,42.8,37.4,29.75,WSW,248,1.1,1.1,81,0.00,,,0.10,WUHU216HW,2013-03-17 03:40:00,
2013-03-16 21:00:00,43.0,37.9,29.77,West,270,1.8,1.8,82,0.00,,,0.10,WUHU216HW,2013-03-17 04:00:00,
2013-03-16 21:05:00,43.0,37.9,29.77,SW,225,1.3,1.8,82,0.00,,,0.10,WUHU216HW,2013-03-17 04:05:00,
2013-03-16 21:10:00,43.0,37.9,29.77,SW,225,1.3,1.3,82,0.00,,,0.10,WUHU216HW,2013-03-17 04:10:00,
2013-03-16 21:30:00,43.2,38.1,29.77,WSW,248,2.0,2.0,82,0.00,,,0.10,WUHU216HW,2013-03-17 04:30:00,
2013-03-16 21:35:00,43.0,37.9,29.77,WSW,248,0.7,2.0,82,0.00,,,0.10,WUHU216HW,2013-03-17 04:35:00,
2013-03-16 21:40:00,43.0,37.9,29.77,WSW,248,0.7,0.7,82,0.00,,,0.10,WUHU216HW,2013-03-17 04:40:00,
2013-03-16 22:00:00,43.2,38.1,29.77,WSW,248,1.8,1.8,82,0.00,,,0.10,WUHU216HW,2013-03-17 05:00:00,
2013-03-16 22:05:00,43.2,38.1,29.77,SW,225,1.1,1.8,82,0.00,,,0.10,WUHU216HW,2013-03-17 05:05:00,
2013-03-16 22:10:00,43.2,38.1,29.77,SW,225,1.1,1.1,82,0.00,,,0.10,WUHU216HW,2013-03-17 05:10:00,
2013-03-16 22:30:00,42.5,37.4,29.79,WSW,248,1.1,1.1,82,0.00,,,0.10,WUHU216HW,2013-03-17 05:30:00,
2013-03-16 22:35:00,42.5,37.4,29.79,WSW,248,1.1,1.1,82,0.00,,,0.10,WUHU216HW,2013-03-17 05:35:00,
2013-03-16 22:40:00,42.5,37.4,29.79,WSW,248,1.1,1.1,82,0.00,,,0.10,WUHU216HW,2013-03-17 05:40:00,
2013-03-16 23:00:00,41.4,36.3,29.80,WNW,293,0.4,0.4,82,0.00,,,0.10,WUHU216HW,2013-03-17 06:00:00,
2013-03-16 23:05:00,41.4,36.3,29.80,SW,225,0.4,0.4,82,0.00,,,0.10,WUHU216HW,2013-03-17 06:05:00,
2013-03-16 23:10:00,41.4,36.3,29.80,SW,225,0.4,0.4,82,0.00,,,0.10,WUHU216HW,2013-03-17 06:10:00,
2013-03-16 23:30:00,40.5,35.4,29.82,NW,315,0.0,0.0,82,0.00,,,0.10,WUHU216HW,2013-03-17 06:30:00,
2013-03-16 23:35:00,40.5,35.4,29.82,WNW,293,0.4,0.4,82,0.00,,,0.10,WUHU216HW,2013-03-17 06:35:00,
2013-03-16 23:40:00,40.5,35.4,29.82,WNW,293,0.4,0.4,82,0.00,,,0.10,WUHU216HW,2013-03-17 06:40:00,